Boulder City, NV

3:58 AM PST on November 21, 2019 (GMT -0800)
Boulder City

Weather History for KBVU - September, 2019

Change the Weather History Date:

Sunday, September 29, 2019

  Actual Average (KLAS) Record (KLAS)
Temperature  
Mean Temperature 68 °F -  
Max Temperature 77 °F 89 °F 102 °F (1978)
Min Temperature 59 °F 63 °F 51 °F (1940)
Cooling Degree Days 3    
Growing Degree Days 18 (Base 50)    
Moisture  
Dew Point 22 °F    
Average Humidity 21    
Maximum Humidity 42    
Minimum Humidity 8    
Precipitation  
Precipitation 0.00 in - - ()
Sea Level Pressure  
Sea Level Pressure 29.72 in    
Wind  
Wind Speed 13 mph ()    
Max Wind Speed 21 mph    
Max Gust Speed 28 mph    
Visibility 10.0 miles    
Events      
Averages and records for this station are not official NWS values.
T = Trace of Precipitation, MM = Missing Value Source: Averaged Metar Reports

Daily Weather History Graph

Daily Weather History Graph

Search for Another Location

Airport or City:

Astronomy

Sep. 29, 2019 Rise Set
Actual Time 6:32 AM PDT 6:26 PM PDT
Civil Twilight 6:07 AM PDT 6:51 PM PDT
Nautical Twilight 5:37 AM PDT 7:21 PM PDT
Astronomical Twilight 5:07 AM PDT 7:51 PM PDT
Moon 7:28 AM PDT (9/29) 7:30 PM PDT (9/29)
Length of Visible Light 12h 44m
Length of Day
11h 53m
New Moon, 2% of the Moon is Illuminated
Sep 29
New Moon
Oct 5
First Quarter
Oct 13
Full
Oct 21
Last Quarter
Oct 27
New

Hourly Weather History & Observations

Time (PDT) Temp. Dew Point Humidity Pressure Visibility Wind Dir Wind Speed Gust Speed Precip Events Conditions
12:15 AM 68.0 °F 35.6 °F 30% 29.60 in 10.0 mi SW 17.3 mph - N/A   Partly Cloudy
12:35 AM 68.0 °F 35.6 °F 30% 29.61 in 10.0 mi SW 18.4 mph - N/A   Scattered Clouds
12:55 AM 68.0 °F 37.4 °F 33% 29.61 in 10.0 mi SW 10.4 mph 24.2 mph N/A   Clear
1:15 AM 64.4 °F 37.4 °F 37% 29.62 in 10.0 mi Variable 4.6 mph - N/A   Scattered Clouds
1:35 AM 66.2 °F 37.4 °F 35% 29.63 in 10.0 mi SW 13.8 mph - N/A   Scattered Clouds
1:55 AM 66.2 °F 39.2 °F 37% 29.64 in 10.0 mi SW 12.7 mph 20.7 mph N/A   Scattered Clouds
2:15 AM 64.4 °F 39.2 °F 40% 29.64 in 10.0 mi SSW 20.7 mph - N/A   Scattered Clouds
2:35 AM 64.4 °F 41.0 °F 42% 29.65 in 10.0 mi SW 17.3 mph 24.2 mph N/A   Scattered Clouds
2:55 AM 64.4 °F 41.0 °F 42% 29.65 in 10.0 mi SSW 12.7 mph - N/A   Mostly Cloudy
3:15 AM 62.6 °F 39.2 °F 42% 29.65 in 10.0 mi South 13.8 mph - N/A   Mostly Cloudy
3:35 AM 62.6 °F 39.2 °F 42% 29.66 in 10.0 mi SW 13.8 mph - N/A   Scattered Clouds
3:55 AM 62.6 °F 39.2 °F 42% 29.67 in 10.0 mi SW 17.3 mph 26.5 mph N/A   Mostly Cloudy
4:15 AM 62.6 °F 39.2 °F 42% 29.68 in 10.0 mi SW 18.4 mph 24.2 mph N/A   Mostly Cloudy
4:35 AM 60.8 °F 37.4 °F 42% 29.68 in 10.0 mi SW 16.1 mph 23.0 mph N/A   Mostly Cloudy
4:55 AM 60.8 °F 37.4 °F 42% 29.69 in 10.0 mi SW 12.7 mph 23.0 mph N/A   Mostly Cloudy
5:15 AM 60.8 °F 35.6 °F 39% 29.70 in 10.0 mi WSW 16.1 mph - N/A   Scattered Clouds
5:35 AM 60.8 °F 35.6 °F 39% 29.71 in 10.0 mi WSW 11.5 mph 20.7 mph N/A   Mostly Cloudy
6:15 AM 60.8 °F 35.6 °F 39% 29.71 in 10.0 mi WSW 17.3 mph - N/A   Clear
6:35 AM 59.0 °F 35.6 °F 42% 29.72 in 10.0 mi SW 15.0 mph - N/A   Clear
6:55 AM 59.0 °F 33.8 °F 39% 29.73 in 10.0 mi SW 11.5 mph 18.4 mph N/A   Clear
7:15 AM 60.8 °F 32.0 °F 34% 29.76 in 10.0 mi SSW 11.5 mph 19.6 mph N/A   Clear
7:35 AM 60.8 °F 28.4 °F 29% 29.77 in 10.0 mi WSW 13.8 mph 27.6 mph N/A   Clear
7:55 AM 62.6 °F 28.4 °F 27% 29.77 in 10.0 mi WSW 18.4 mph - N/A   Clear
8:15 AM 62.6 °F 28.4 °F 27% 29.78 in 10.0 mi WSW 13.8 mph 20.7 mph N/A   Clear
8:35 AM 64.4 °F 24.8 °F 22% 29.77 in 10.0 mi West 20.7 mph 26.5 mph N/A   Clear
8:55 AM 64.4 °F 24.8 °F 22% 29.79 in 10.0 mi WSW 15.0 mph - N/A   Clear
9:15 AM 64.4 °F 24.8 °F 22% 29.79 in 10.0 mi SW 18.4 mph - N/A   Clear
9:35 AM 64.4 °F 24.8 °F 22% 29.79 in 10.0 mi SW 16.1 mph 26.5 mph N/A   Clear
9:55 AM 66.2 °F 24.8 °F 21% 29.80 in 10.0 mi SW 17.3 mph 24.2 mph N/A   Clear
10:15 AM 66.2 °F 21.2 °F 18% 29.80 in 10.0 mi SW 13.8 mph - N/A   Clear
10:35 AM 68.0 °F 21.2 °F 17% 29.79 in 10.0 mi SSW 12.7 mph 20.7 mph N/A   Clear
10:55 AM 69.8 °F 17.6 °F 14% 29.80 in 10.0 mi WSW 8.1 mph 18.4 mph N/A   Clear
11:15 AM 69.8 °F 15.8 °F 13% 29.79 in 10.0 mi SW 13.8 mph 19.6 mph N/A   Clear
11:35 AM 69.8 °F 14.0 °F 12% 29.80 in 10.0 mi SSW 12.7 mph - N/A   Clear
11:55 AM 71.6 °F 12.2 °F 10% 29.79 in 10.0 mi West 10.4 mph 16.1 mph N/A   Clear
12:15 PM 71.6 °F 14.0 °F 11% 29.79 in 10.0 mi WSW 13.8 mph - N/A   Clear
12:35 PM 71.6 °F 12.2 °F 10% 29.78 in 10.0 mi WSW 15.0 mph 20.7 mph N/A   Clear
12:55 PM 71.6 °F 10.4 °F 9% 29.77 in 10.0 mi South 9.2 mph 16.1 mph N/A   Clear
1:15 PM 73.4 °F 10.4 °F 9% 29.77 in 10.0 mi SSW 10.4 mph 19.6 mph N/A   Clear
1:35 PM 73.4 °F 10.4 °F 9% 29.75 in 10.0 mi SSW 12.7 mph - N/A   Clear
1:55 PM 73.4 °F 10.4 °F 9% 29.75 in 10.0 mi SW 8.1 mph 17.3 mph N/A   Clear
2:15 PM 73.4 °F 10.4 °F 9% 29.74 in 10.0 mi WSW 6.9 mph - N/A   Clear
2:35 PM 75.2 °F 10.4 °F 8% 29.73 in 10.0 mi WSW 8.1 mph 15.0 mph N/A   Clear
2:55 PM 75.2 °F 10.4 °F 8% 29.73 in 10.0 mi WSW 12.7 mph 20.7 mph N/A   Clear
3:15 PM 75.2 °F 10.4 °F 8% 29.73 in 10.0 mi WSW 10.4 mph - N/A   Clear
3:35 PM 77.0 °F 17.6 °F 11% 29.72 in 10.0 mi South 12.7 mph - N/A   Clear
3:55 PM 75.2 °F 21.2 °F 13% 29.72 in 10.0 mi SW 6.9 mph 15.0 mph N/A   Clear
4:15 PM 77.0 °F 14.0 °F 9% 29.71 in 10.0 mi SW 19.6 mph - N/A   Clear
4:35 PM 77.0 °F 14.0 °F 9% 29.71 in 10.0 mi SSW 15.0 mph - N/A   Clear
4:55 PM 75.2 °F 14.0 °F 10% 29.70 in 10.0 mi WSW 11.5 mph 19.6 mph N/A   Clear
5:15 PM 75.2 °F 12.2 °F 9% 29.70 in 10.0 mi SW 10.4 mph - N/A   Clear
5:35 PM 75.2 °F 14.0 °F 10% 29.70 in 10.0 mi WSW 15.0 mph - N/A   Clear
5:55 PM 73.4 °F 12.2 °F 10% 29.70 in 10.0 mi WSW 13.8 mph - N/A   Clear
6:15 PM 73.4 °F 12.2 °F 10% 29.70 in 10.0 mi SW 17.3 mph - N/A   Clear
6:35 PM 71.6 °F 10.4 °F 9% 29.70 in 10.0 mi SW 12.7 mph - N/A   Clear
6:55 PM 69.8 °F 8.6 °F 9% 29.71 in 10.0 mi SW 10.4 mph - N/A   Clear
7:15 PM 68.0 °F 8.6 °F 10% 29.72 in 10.0 mi SSW 9.2 mph - N/A   Clear
7:35 PM 68.0 °F 8.6 °F 10% 29.72 in 10.0 mi South 10.4 mph - N/A   Partly Cloudy
7:55 PM 68.0 °F 8.6 °F 10% 29.73 in 10.0 mi South 9.2 mph - N/A   Scattered Clouds
8:55 PM 66.2 °F 12.2 °F 12% 29.74 in 10.0 mi SW 10.4 mph - N/A   Mostly Cloudy
9:15 PM 64.4 °F 12.2 °F 13% 29.74 in 10.0 mi SW 9.2 mph - N/A   Overcast
9:35 PM 62.6 °F 12.2 °F 14% 29.74 in 10.0 mi SSE 4.6 mph - N/A   Overcast
9:55 PM 62.6 °F 12.2 °F 14% 29.75 in 10.0 mi SSE 6.9 mph - N/A   Mostly Cloudy
10:15 PM 62.6 °F 12.2 °F 14% 29.75 in 10.0 mi SW 6.9 mph - N/A   Overcast
10:35 PM 62.6 °F 10.4 °F 13% 29.75 in 10.0 mi SSW 10.4 mph - N/A   Mostly Cloudy
10:55 PM 62.6 °F 6.8 °F 11% 29.75 in 10.0 mi SSW 9.2 mph - N/A   Mostly Cloudy
11:35 PM 62.6 °F 12.2 °F 14% 29.76 in 10.0 mi SW 16.1 mph - N/A   Overcast
11:55 PM 60.8 °F 14.0 °F 16% 29.76 in 10.0 mi SSW 9.2 mph - N/A   Overcast